IRIDIUM 156 (43576 NORAD) Tracking and Keplerian Element Data

This shows tracking and keplerian element data for the satellite.

Feedback or suggestion? Click here.




ElementValue
Catalog43576
NameIRIDIUM 156
Epoch Orbit34192
Epoch Day34.69111875
Epoch Year2025
RAAN265.0155
Inclination86.3932
Eccentricity0.0002389
Argument of Perigee92.1574
Mean Anonmoly267.9895
Mean Motion14.34225863
Decay Rate5.37E-06
L11 43576U 18061H 25034.69111875 .00000537 00000+0 18450-3 0 9998
L22 43576 86.3932 265.0155 0002389 92.1574 267.9895 14.34225863341925



Live tracking and technical data element details for IRIDIUM 156 (NORAD 43576). IRIDIUM 156 can be tracked NOW for your location showing map with azimuth and elevation plus other details from your city location.







IsCatalogInMostPopularTable: catalog: 43576, numindb: 450
Update: records affected: 1



GetName: 43576 IRIDIUM 156

Hit Count: updated at: Fri, 16 May 2025 11:39:15 GMT